Showing default

IRIDIUM 121, 42812

Orbit data source: Space-Track

IRIDIUM 121, 42812 is a payload satellite owned by Iridium (US) in LEO that was launched on Sun, 25 Jun 2017 UTC via an FALCON 9 launch vehicle from the Air Force Western Test Range (AFWTR). Payload-class satellites include a variety of spacecraft equipped with specific instruments for various scientific and technological missions. These include communications satellites like Starlink; space stations such as the ISS; scientific satellites like the Hubble; Earth observation satellites from companies like Planet Labs, Umbra, and HawkEye 360; GPS; miniature CubeSats for education and research; and military/defense satellites.

Loading next visibility...
Identifier
42812, 2017-039K
Orbit
LEO
Country
Flag of USUS
Related business
Manufacturer
OATK SSG Gilbert
Mission
Operational Commercial Communications
Bus & Motor
ELITEBUS, Unknown motor
Mass
860 kg wet, 700 kg dry
Launch date (UTC)
2017-06-25 (8 years ago)
Launch vehicle
FALCON 9
Launch site
Air Force Western Test Range (AFWTR)
Object type
Payload
Rocket body
Debris
Shape & HBR
Trap Box + 2 Pan, 4.8 m
Radar Cross Section
10.154 m², Large (>1 m²)

Expand to show TLE details & history
Last TLE update: 22 hours ago

TLE from 22 hours ago
0 IRIDIUM 121
1 42812U 17039K   25315.28058970  .00000255  00000-0  83900-4 0  9998
2 42812  86.3946  84.7632 0002037  96.5886 263.5541 14.34218238438590
Epoch: 2025-11-11T06:44Z
TLE epoch observation values (Epoch: 2025-11-11T06:44:02.950Z)
Latitude
-0.00007°
Longitude
-66.9185°
Altitude
780.88 km
Speed
7.463 km/s
True Right ascension
05h 39m 03s
True Declination
0° 00' 00"
Sunlit
Object was in full shadow at epoch
Visualization orbit readout
Latitude
Unknown
Longitude
Unknown
Altitude
Unknown
Speed
Unknown
Apparent Right ascension
Unknown
Apparent Declination
Unknown
Sunlit
N/A
Visualization observer readout
Local Sidereal Time
00:48:04
Azimuth
Unknown
Elevation
Unknown
Doppler factor
Unknown
Orbital elements
Apogee altitude
776.087 km
Perigee altitude
773.173 km
Semi-major axis
7,152.767 km
Eccentricity
0.0002
Inclination
86.3946°
RAAN
84.7632°
Arg. of periapsis
96.5886°
True anomaly
263.53091°
Mean anomaly
263.5541°
Eccentric anomaly
263.5425°
Mean motion
3.58783 °/min
Orbital period
100.34 mins
BSTAR
0.0000839
Loading maneuver chart data...
Computing Atmospheric mass density...
Loading historical data...
Loading historical data...
Loading historical data...
Loading historical data...
Loading historical data...
Loading historical data...
Loading historical data...

Documentation

Showing up to 5 results
|